Location: ????????
(55.8351°N, 38.7040°E)
Time: 13:19:55
(UTC+00:00)

BlueWalker 3 - Pass Details

Date: 14 April 2024
Orbit: 481 x 494 km, 53.2° (Epoch: 23 May)

Event Time Altitude Azimuth Distance (km) Brightness Sun altitude
Exits shadow 00:26:09 27° 242° (WSW) 981 2.8 -14.7°
Maximum altitude 00:27:23 34° 204° (SSW) 831 2.5 -14.6°
Drops below altitude 10° 00:30:53 10° 138° (SE) 1,698 4.6 -14.2°
Sets 00:33:11 0° 129° (SE) 2,577 5.7 -14.0°
